Rayong, Thailand

8:36 PM +07 on May 25, 2018 (GMT +0700)
U-Taphao International

Weather History for VTBU - May, 2013

Change the Weather History Date:

Thursday, May 30, 2013

  Actual Average Record
Temperature  
Mean Temperature 88 °F -  
Max Temperature 93 °F 90 °F 95 °F (2003)
Min Temperature 82 °F 79 °F 68 °F (2005)
Cooling Degree Days 22    
Growing Degree Days 38 (Base 50)    
Moisture  
Dew Point 75 °F    
Average Humidity 71    
Maximum Humidity 84    
Minimum Humidity 55    
Precipitation  
Precipitation 0.00 in - - ()
Sea Level Pressure  
Sea Level Pressure 29.77 in    
Wind  
Wind Speed 1 mph ()    
Max Wind Speed 7 mph    
Max Gust Speed -    
Visibility 5.0 miles    
Events Rain , Thunderstorm    
Averages and records for this station are not official NWS values.
T = Trace of Precipitation, MM = Missing Value Source: Averaged Metar Reports

Daily Weather History Graph

Daily Weather History Graph

Search for Another Location

Airport or City:

Astronomy

May. 30, 2013 Rise Set
Actual Time 5:47 AM +07 6:36 PM +07
Civil Twilight 5:24 AM +07 6:59 PM +07
Nautical Twilight 4:57 AM +07 7:26 PM +07
Astronomical Twilight 4:30 AM +07 7:54 PM +07
Moon 11:32 PM +07 (5/30) 10:48 AM +07 (5/30)
Length of Visible Light 13h 34m
Length of Day
12h 48m
Waning Gibbous, 67% of the Moon is Illuminated
May 30
Waning Gibbous
Jun 1
Last Quarter
Jun 8
New
Jun 17
First Quarter
Jun 23
Full

Hourly Weather History & Observations

Time (+07) Temp. Heat Index Dew Point Humidity Pressure Visibility Wind Dir Wind Speed Gust Speed Precip Events Conditions
12:00 AM 87.8 °F 97.6 °F 75.2 °F 66% 29.80 in 5.0 mi SSE 4.6 mph - N/A   Mostly Cloudy
12:30 AM 87.8 °F 99.7 °F 77.0 °F 70% 29.80 in 5.0 mi Calm Calm - N/A   Mostly Cloudy
1:00 AM 87.8 °F 99.7 °F 77.0 °F 70% 29.80 in 5.0 mi Calm Calm - N/A   Mostly Cloudy
1:30 AM 86.0 °F 96.9 °F 77.0 °F 74% 29.77 in 5.0 mi Calm Calm - N/A   Mostly Cloudy
2:00 AM 86.0 °F 96.9 °F 77.0 °F 74% 29.77 in 5.0 mi Calm Calm - N/A   Mostly Cloudy
2:30 AM 86.0 °F 96.9 °F 77.0 °F 74% 29.74 in 5.0 mi Calm Calm - N/A   Mostly Cloudy
3:00 AM 84.2 °F 92.3 °F 75.2 °F 74% 29.74 in 5.0 mi Calm Calm - N/A   Mostly Cloudy
3:30 AM 84.2 °F 94.1 °F 77.0 °F 79% 29.74 in 5.0 mi Calm Calm - N/A   Mostly Cloudy
4:00 AM 84.2 °F 96.1 °F 78.8 °F 84% 29.74 in 5.0 mi Calm Calm - N/A   Mostly Cloudy
4:30 AM 84.2 °F 96.1 °F 78.8 °F 84% 29.74 in 5.0 mi Calm Calm - N/A   Mostly Cloudy
5:00 AM 84.2 °F 94.1 °F 77.0 °F 79% 29.74 in 5.0 mi Calm Calm - N/A   Mostly Cloudy
5:30 AM 86.0 °F 99.3 °F 78.8 °F 79% 29.77 in 5.0 mi Calm Calm - N/A   Mostly Cloudy
6:00 AM 84.2 °F 96.1 °F 78.8 °F 84% 29.77 in 4.3 mi Calm Calm - N/A Thunderstorm Thunderstorm
6:30 AM 82.4 °F 90.9 °F 77.0 °F 84% 29.77 in 3.7 mi Calm Calm - N/A Thunderstorm Thunderstorm
7:00 AM 84.2 °F 94.1 °F 77.0 °F 79% 29.77 in 3.7 mi Calm Calm - N/A Thunderstorm Thunderstorm
7:30 AM 84.2 °F 96.1 °F 78.8 °F 84% 29.80 in 3.7 mi Calm Calm - N/A Thunderstorm Thunderstorm
8:00 AM 86.0 °F 96.9 °F 77.0 °F 74% 29.80 in 3.7 mi Calm Calm - N/A Thunderstorm Thunderstorm
8:30 AM 82.4 °F 89.5 °F 75.2 °F 79% 29.80 in 3.7 mi West 3.5 mph - N/A Thunderstorm Thunderstorm
9:00 AM 82.4 °F 89.5 °F 75.2 °F 79% 29.83 in 3.1 mi SSE 4.6 mph - N/A Rain , Thunderstorm Light Thunderstorms and Rain
9:30 AM 82.4 °F 89.5 °F 75.2 °F 79% 29.83 in 3.7 mi Calm Calm - N/A Thunderstorm Thunderstorm
10:00 AM 82.4 °F 89.5 °F 75.2 °F 79% 29.83 in 3.7 mi NNW 3.5 mph - N/A Thunderstorm Thunderstorm
10:30 AM 82.4 °F 89.5 °F 75.2 °F 79% 29.80 in 3.7 mi NNW 4.6 mph - N/A Thunderstorm Thunderstorm
11:00 AM 87.8 °F 97.6 °F 75.2 °F 66% 29.80 in 3.7 mi NNE 3.5 mph - N/A Thunderstorm Thunderstorm
11:30 AM 89.6 °F 99.8 °F 75.2 °F 62% 29.80 in 3.7 mi WNW 2.3 mph - N/A Thunderstorm Thunderstorm
12:00 PM 89.6 °F 99.8 °F 75.2 °F 62% 29.80 in 3.7 mi NNW 2.3 mph - N/A Thunderstorm Thunderstorm
12:30 PM 89.6 °F 99.8 °F 75.2 °F 62% 29.80 in 4.3 mi Calm Calm - N/A Thunderstorm Thunderstorm
1:00 PM 89.6 °F 99.8 °F 75.2 °F 62% 29.77 in 4.3 mi NNW 3.5 mph - N/A   Mostly Cloudy
1:30 PM 93.2 °F 105.0 °F 75.2 °F 56% 29.77 in 5.0 mi NNW 4.6 mph - N/A   Mostly Cloudy
2:00 PM 91.4 °F 100.1 °F 73.4 °F 55% 29.74 in 5.0 mi NNE 6.9 mph - N/A   Mostly Cloudy
2:30 PM 89.6 °F 99.8 °F 75.2 °F 62% 29.74 in 5.0 mi North 4.6 mph - N/A   Mostly Cloudy
3:00 PM 89.6 °F 98.2 °F 73.4 °F 59% 29.74 in 5.0 mi NW 4.6 mph - N/A   Mostly Cloudy
3:30 PM 89.6 °F 98.2 °F 73.4 °F 59% 29.71 in 5.0 mi NNW 4.6 mph - N/A   Mostly Cloudy
4:00 PM 87.8 °F 95.6 °F 73.4 °F 62% 29.71 in 5.6 mi North 3.5 mph - N/A   Mostly Cloudy
4:30 PM 87.8 °F 95.6 °F 73.4 °F 62% 29.71 in 6.2 mi North 2.3 mph - N/A   Mostly Cloudy
5:00 PM 87.8 °F 93.8 °F 71.6 °F 58% 29.74 in 6.2 mi Calm Calm - N/A   Mostly Cloudy
5:30 PM 87.8 °F 92.6 °F 69.8 °F 55% 29.74 in 6.2 mi Calm Calm - N/A   Mostly Cloudy
6:00 PM 87.8 °F 93.8 °F 71.6 °F 58% 29.74 in 6.2 mi SW 3.5 mph - N/A   Mostly Cloudy
6:30 PM 87.8 °F 97.6 °F 75.2 °F 66% 29.74 in 6.2 mi South 2.3 mph - N/A   Mostly Cloudy
7:00 PM 86.0 °F 95.1 °F 75.2 °F 70% 29.77 in 6.2 mi Calm Calm - N/A   Mostly Cloudy
7:30 PM 86.0 °F 95.1 °F 75.2 °F 70% 29.77 in 6.2 mi Calm Calm - N/A   Mostly Cloudy
8:00 PM 84.2 °F 92.3 °F 75.2 °F 74% 29.77 in 6.2 mi Calm Calm - N/A   Mostly Cloudy
8:30 PM 86.0 °F 93.4 °F 73.4 °F 66% 29.77 in 6.2 mi Calm Calm - N/A   Mostly Cloudy
9:00 PM 86.0 °F 95.1 °F 75.2 °F 70% 29.77 in 6.2 mi Calm Calm - N/A   Mostly Cloudy
9:30 PM 84.2 °F 92.3 °F 75.2 °F 74% 29.80 in 6.2 mi Calm Calm - N/A   Mostly Cloudy
10:00 PM 84.2 °F 92.3 °F 75.2 °F 74% 29.80 in 6.2 mi Calm Calm - N/A   Mostly Cloudy
10:30 PM 84.2 °F 92.3 °F 75.2 °F 74% 29.80 in 6.2 mi SSE 3.5 mph - N/A   Mostly Cloudy
11:00 PM 84.2 °F 92.3 °F 75.2 °F 74% 29.80 in 6.2 mi East 3.5 mph - N/A   Mostly Cloudy
11:30 PM 82.4 °F 89.5 °F 75.2 °F 79% 29.80 in 5.6 mi East 3.5 mph - N/A   Mostly Cloudy